Вернуться в каталог

STARLINK-11362

АктивенСвязьVLEO
NORAD 61535·PAYLOAD·🇺🇸 United States

Запущен Oct 15, 2024 с Vandenberg Space Force Base

Loading…

Ближайшие Пролёты (ближайшие 24 часа)

TLE

СвежийSource: CelesTrak SupGP

Эпоха: Sep 14, 2026, 21:12 UTC

1 61535C 24184D   26257.88381944  .00063373  00000+0  52182-3 0  2575
2 61535  53.1575  23.4658 0001075  79.0108 306.2961 15.69687439    10

Отслеживайте STARLINK-11362 в реальном времени с AllMySat

Download on the App Store